QPF
0.00 0.00 0.00 0.00 0.00 0.00 0.00 0.00 0.00 0.00 0.00 0.00 0.00 0.00 0.00 0.00 0.00 0.00 0.00 0.00 0.00 0.00
0.00 0.00 0.00 0.00 0.00 0.00 0.00 0.00 0.00 0.00 0.00 0.00 0.00 0.00 0.00 0.00 0.00 0.00 0.00 0.00 0.00 0.00
0.00 0.00 0.00 0.00 0.00 0.00 0.00 0.00 0.00 0.00 0.00 0.00 0.00 0.00 0.00 0.00 0.00 0.00 0.00 0.00 0.00 0.00
0.00 0.00 0.00 0.01 0.01 0.01 0.01 0.01 0.01 0.00 0.00 0.00 0.00 0.00 0.00 0.00 0.01 0.00 0.00 0.00 0.00 0.00
0.00 0.00 0.01 0.01 0.01 0.02 0.03 0.02 0.03 0.02 0.01 0.00 0.00 0.00 0.01 0.01 0.01 0.01 0.01 0.00 0.00 0.00
0.01 0.01 0.01 0.00 0.00 0.00 0.01 0.01 0.01 0.02 0.01 0.00 0.00 0.00 0.00 0.01 0.00 0.00 0.00 0.00 0.00 0.00
0.03 0.02 0.02 0.01 0.01 0.00 0.00 0.00 0.00 0.00 0.00 0.00 0.00 0.01 0.01 0.01 0.01 0.01 0.01 0.03 0.03 0.03
0.02 0.02 0.03 0.03 0.02 0.02 0.02 0.02 0.01 0.01 0.01 0.01 0.01 0.02 0.02 0.02 0.04 0.06 0.06 0.06 0.03 0.03
0.02 0.03 0.03 0.03 0.02 0.02 0.02 0.03 0.04 0.05 0.06 0.05 0.04 0.08 0.03 0.01 0.01 0.01 0.01 0.02 0.02 0.03
0.00 0.01 0.01 0.01 0.01 0.01 0.02 0.02 0.04 0.04 0.04 0.05 0.05 0.12 0.05 0.02 0.01 0.01 0.01 0.00 0.00 0.01
0.00 0.00 0.00 0.00 0.00 0.00 0.00 0.00 0.00 0.00 0.00 0.00 0.00 0.03 0.01 0.01 0.00 0.00 0.00 0.00 0.01 0.01
0.00 0.00 0.00 0.00 0.00 0.00 0.00 0.00 0.00 0.00 0.00 0.00 0.00 0.01 0.00 0.00 0.00 0.00 0.00 0.01 0.02 0.04
0.00 0.00 0.00 0.00 0.00 0.00 0.00 0.00 0.00 0.00 0.00 0.00 0.00 0.00 0.00 0.00 0.00 0.00 0.00 0.00 0.00 0.00
0.00 0.00 0.00 0.00 0.00 0.00 0.00 0.00 0.00 0.00 0.00 0.00 0.00 0.00 0.00 0.00 0.00 0.00 0.00 0.00 0.00 0.00
MSLP
1018.41 1018.93 1019.34 1019.76 1020.22 1020.58 1020.84 1020.82 1020.95 1021.30 1021.58 1021.70 1022.16 1022.43 1022.90 1023.30 1023.53 1023.84 1024.13 1024.22 1024.35 1024.42
1017.59 1018.08 1018.72 1019.16 1019.67 1019.99 1020.30 1020.30 1020.66 1020.88 1021.25 1021.28 1021.60 1021.94 1022.21 1022.54 1022.58 1022.91 1023.13 1023.26 1023.43 1023.61
1017.22 1017.74 1018.27 1018.80 1019.27 1019.50 1019.62 1019.78 1020.18 1020.54 1020.67 1020.87 1021.03 1021.37 1021.64 1021.95 1021.85 1022.17 1022.23 1022.32 1022.50 1022.62
1016.81 1017.29 1017.83 1018.27 1018.64 1018.82 1018.96 1019.12 1019.48 1019.73 1020.06 1020.25 1020.39 1020.55 1020.99 1021.07 1021.11 1021.44 1021.58 1021.74 1021.91 1021.82
1017.01 1017.13 1017.44 1017.82 1018.09 1018.38 1018.57 1018.48 1018.71 1019.19 1019.48 1019.64 1019.75 1019.99 1020.31 1020.58 1020.62 1020.69 1020.86 1020.93 1021.27 1021.25
1017.81 1018.01 1018.09 1018.25 1018.37 1018.51 1018.59 1018.65 1018.73 1018.96 1019.04 1019.21 1019.32 1019.50 1019.64 1019.85 1020.03 1020.16 1020.19 1020.29 1020.41 1020.41
1018.19 1018.57 1018.92 1018.99 1018.95 1018.95 1019.06 1019.08 1019.08 1019.31 1019.30 1019.15 1019.26 1019.38 1019.50 1019.59 1019.66 1019.67 1019.69 1019.69 1019.87 1019.90
1018.88 1019.04 1019.29 1019.62 1019.40 1019.55 1019.37 1019.48 1019.44 1019.50 1019.73 1019.82 1019.61 1019.84 1019.90 1019.92 1019.89 1019.67 1019.60 1019.43 1019.14 1019.22
1019.22 1019.57 1019.74 1020.05 1019.90 1019.82 1020.08 1019.80 1019.99 1019.70 1020.14 1019.73 1020.27 1020.20 1020.19 1020.23 1020.00 1019.96 1019.96 1019.81 1019.48 1019.33
1019.42 1019.81 1020.13 1020.19 1020.08 1020.37 1020.48 1020.23 1020.15 1020.54 1020.21 1020.37 1020.47 1020.39 1020.34 1020.34 1020.29 1020.15 1020.08 1019.85 1019.75 1019.63
1019.83 1020.04 1020.14 1020.28 1020.48 1020.65 1020.75 1020.71 1020.78 1020.92 1020.70 1020.78 1020.88 1020.83 1020.58 1020.61 1020.60 1020.49 1020.42 1020.31 1020.18 1020.16
1020.07 1020.27 1020.42 1020.65 1020.79 1020.95 1021.00 1020.96 1021.00 1021.08 1020.98 1020.90 1020.96 1020.96 1020.93 1020.95 1020.84 1020.75 1020.80 1020.60 1020.60 1020.55
1020.60 1020.74 1020.97 1021.08 1021.19 1021.32 1021.30 1021.32 1021.34 1021.38 1021.21 1021.22 1021.41 1021.29 1021.28 1021.21 1021.08 1021.17 1021.25 1021.13 1020.97 1020.74
1020.61 1020.86 1021.05 1021.29 1021.42 1021.56 1021.64 1021.72 1021.86 1021.94 1021.97 1021.89 1021.90 1021.78 1021.60 1021.50 1021.51 1021.60 1021.57 1021.35 1021.28 1021.07
Thickness
5623 5621 5619 5617 5616 5616 5616 5617 5618 5618 5618 5619 5618 5617 5616 5614 5613 5611 5608 5607 5605 5605
5624 5622 5618 5617 5615 5615 5614 5616 5615 5615 5615 5616 5615 5614 5613 5613 5612 5609 5609 5608 5606 5603
5621 5619 5617 5615 5613 5613 5613 5613 5612 5612 5612 5612 5612 5611 5609 5609 5609 5607 5607 5607 5605 5603
5618 5616 5614 5613 5611 5611 5611 5611 5610 5610 5610 5610 5610 5609 5607 5607 5607 5605 5604 5602 5600 5600
5610 5611 5611 5610 5610 5610 5609 5608 5609 5607 5607 5607 5608 5607 5604 5602 5602 5602 5601 5600 5596 5596
5594 5594 5596 5597 5599 5599 5600 5600 5601 5601 5603 5603 5603 5602 5601 5599 5598 5597 5597 5595 5593 5592
5582 5580 5580 5582 5585 5587 5588 5589 5590 5589 5590 5592 5592 5591 5591 5591 5590 5590 5589 5588 5586 5585
5567 5568 5567 5566 5570 5572 5574 5575 5576 5577 5575 5574 5576 5575 5575 5575 5575 5576 5576 5577 5579 5578
5554 5553 5553 5552 5555 5557 5556 5559 5558 5562 5559 5563 5558 5560 5560 5560 5561 5560 5559 5560 5562 5563
5541 5540 5539 5540 5542 5541 5541 5544 5545 5542 5545 5544 5543 5545 5545 5546 5545 5545 5544 5546 5546 5546
5525 5525 5527 5527 5527 5527 5527 5528 5528 5527 5529 5528 5527 5528 5530 5530 5529 5528 5528 5528 5527 5526
5512 5512 5512 5511 5511 5511 5512 5512 5512 5512 5513 5513 5513 5512 5513 5511 5511 5511 5508 5509 5507 5506
5494 5494 5494 5494 5494 5494 5494 5494 5494 5494 5495 5495 5492 5494 5494 5493 5493 5491 5489 5488 5487 5487
5477 5477 5477 5477 5477 5476 5476 5475 5474 5473 5472 5473 5472 5472 5474 5474 5471 5470 5467 5467 5466 5465